Location: Gwatt
(46.7204°N, 7.6223°E)
Time: 20:00:21
(UTC+00:00)

Transit 2A - Pass Details

Date: 22 January 2021
Orbit: 600 x 958 km, 66.7° (Epoch: 26 February)

Event Time Altitude Azimuth Distance (km) Brightness Sun altitude
Rises 10:34:32 0° 332° (NNW) 3,103 8.6 22.0°
Reaches altitude 10° 10:37:45 10° 352° (N) 2,113 7.8 22.2°
Maximum altitude 10:40:50 17° 33° (NNE) 1,637 7.5 22.3°
Drops below altitude 10° 10:43:48 10° 75° (ENE) 2,005 8.3 22.5°
Sets 10:46:44 0° 96° (E) 2,873 9.2 22.6°
